Location: Oulou
(10.7667°N, 12.5167°W)
Time: 11:35:00
(UTC+00:00)

Cosmos 1295 Rocket - Pass Details

Date: 20 September 2019
Orbit: 943 x 995 km, 82.9° (Epoch: 15 October)

Event Time Altitude Azimuth Distance (km) Brightness Sun altitude
Rises 20:35:44 0° 355° (N) 3,614 7.6 -27.3°
Reaches altitude 10° 20:38:13 10° 355° (N) 2,664 6.9 -27.9°
Maximum altitude 20:44:18 84° 267° (W) 951 4.3 -29.4°
Enters shadow 20:45:16 65° 190° (S) 1,031 4.5 -29.6°
